ARG1789 SABE-SACO

Flight info

Callsign ARG1789
Flight time 1h 11m
Altitude FL340
Route ATOV4B ATOVO UW5 ASISA ASIS1Q
Aircraft B38M/M-SDE2E3FGHIRWXY/LB1

Departure

Time 2026-05-03 20:58
Airport Aeroparque Jorge Newbery (SABE)

Arrival

Time 2026-05-03 22:10
Airport Ingeniero Aeronáutico Ambrosio L.V. Taravella International Airport (SACO)
Time Latitude Longitude Altitude Speed Heading
2026-05-03 20:15 -34.55701 -58.41445 28 ft 0 kts 18°
2026-05-03 20:17 -34.55703 -58.41446 28 ft 2 kts 18°
2026-05-03 20:17 -34.55727 -58.41450 15 ft 4 kts 347°
2026-05-03 20:18 -34.55750 -58.41436 28 ft 4 kts 316°
2026-05-03 20:18 -34.55765 -58.41414 28 ft 1 kts 303°
2026-05-03 20:24 -34.55719 -58.41404 28 ft 0 kts 31°
2026-05-03 20:26 0.00041 0.01397 11 ft 0 kts 360°
2026-05-03 20:27 -34.55718 -58.41404 11 ft 0 kts 31°
2026-05-03 20:28 -34.55719 -58.41404 28 ft 0 kts 31°
2026-05-03 20:42 -34.55730 -58.41412 28 ft 4 kts 18°
2026-05-03 20:42 -34.55754 -58.41413 28 ft 4 kts 335°
2026-05-03 20:43 -34.55774 -58.41394 28 ft 6 kts 307°
2026-05-03 20:47 -34.55766 -58.41410 28 ft 6 kts 301°
2026-05-03 20:47 -34.55727 -58.41491 28 ft 14 kts 297°
2026-05-03 20:47 -34.55768 -58.41597 28 ft 14 kts 201°
2026-05-03 20:48 -34.55828 -58.41532 28 ft 14 kts 117°
2026-05-03 20:48 -34.55874 -58.41422 28 ft 16 kts 117°
2026-05-03 20:48 -34.55929 -58.41296 28 ft 16 kts 123°
2026-05-03 20:48 -34.55987 -58.41200 28 ft 13 kts 127°
2026-05-03 20:49 -34.56046 -58.41107 28 ft 15 kts 127°
2026-05-03 20:49 -34.56063 -58.41079 28 ft 3 kts 127°
2026-05-03 20:49 -34.56083 -58.41048 28 ft 7 kts 127°
2026-05-03 20:49 -34.56124 -58.40983 28 ft 13 kts 127°
2026-05-03 20:50 -34.56172 -58.40875 28 ft 14 kts 98°
2026-05-03 20:50 -34.56195 -58.40788 28 ft 12 kts 124°
2026-05-03 20:50 -34.56242 -58.40704 28 ft 9 kts 124°
2026-05-03 20:50 -34.56254 -58.40683 28 ft 5 kts 124°
2026-05-03 20:51 -34.56285 -58.40627 28 ft 11 kts 124°
2026-05-03 20:51 -34.56316 -58.40577 28 ft 0 kts 136°
2026-05-03 20:51 -34.56338 -58.40552 28 ft 8 kts 138°
2026-05-03 20:52 -34.56378 -58.40509 28 ft 0 kts 138°
2026-05-03 20:52 -34.56382 -58.40504 28 ft 3 kts 138°
2026-05-03 20:52 -34.56384 -58.40502 28 ft 0 kts 138°
2026-05-03 20:54 -34.56386 -58.40500 28 ft 1 kts 139°
2026-05-03 20:54 -34.56419 -58.40464 28 ft 0 kts 139°
2026-05-03 20:55 -34.56420 -58.40463 28 ft 1 kts 139°
2026-05-03 20:56 -34.56437 -58.40445 28 ft 7 kts 137°
2026-05-03 20:56 -34.56491 -58.40386 28 ft 12 kts 144°
2026-05-03 20:56 -34.56558 -58.40421 28 ft 12 kts 242°
2026-05-03 20:56 -34.56542 -58.40472 28 ft 0 kts 305°
2026-05-03 20:57 -34.56540 -58.40476 28 ft 2 kts 306°
2026-05-03 20:57 -34.56537 -58.40481 28 ft 0 kts 304°
2026-05-03 20:57 -34.56529 -58.40495 28 ft 15 kts 304°
2026-05-03 20:58 -34.56323 -58.40864 28 ft 89 kts 304°
2026-05-03 20:58 -34.55859 -58.41699 26 ft 147 kts 304°
2026-05-03 20:58 -34.55244 -58.42831 398 ft 163 kts 302°
2026-05-03 20:58 -34.54612 -58.44018 1038 ft 168 kts 308°
2026-05-03 20:59 -34.53814 -58.44965 1851 ft 163 kts 332°
2026-05-03 20:59 -34.52666 -58.45306 2257 ft 183 kts
2026-05-03 20:59 -34.51387 -58.44759 2649 ft 212 kts 28°
2026-05-03 20:59 -34.50076 -58.43771 3144 ft 232 kts 27°
2026-05-03 21:00 -34.48697 -58.42748 3979 ft 234 kts 28°
2026-05-03 21:00 -34.47762 -58.42051 4489 ft 240 kts 27°
2026-05-03 21:00 -34.45824 -58.40609 5640 ft 248 kts 27°
2026-05-03 21:00 -34.44334 -58.39499 6444 ft 259 kts 27°
2026-05-03 21:01 -34.42747 -58.38318 7003 ft 277 kts 27°
2026-05-03 21:01 -34.41075 -58.37072 7773 ft 283 kts 26°
2026-05-03 21:01 -34.39261 -58.36241 8636 ft 279 kts
2026-05-03 21:01 -34.37380 -58.36464 9525 ft 272 kts 336°
2026-05-03 21:02 -34.35718 -58.37520 10320 ft 273 kts 324°
2026-05-03 21:02 -34.34124 -58.38745 10769 ft 290 kts 324°
2026-05-03 21:02 -34.32385 -58.40119 11119 ft 310 kts 323°
2026-05-03 21:02 -34.30546 -58.41594 11556 ft 325 kts 323°
2026-05-03 21:03 -34.28649 -58.43130 12179 ft 331 kts 322°
2026-05-03 21:03 -34.26732 -58.44693 12923 ft 336 kts 322°
2026-05-03 21:03 -34.24782 -58.46288 13596 ft 342 kts 322°
2026-05-03 21:03 -34.22806 -58.47906 14250 ft 346 kts 322°
2026-05-03 21:04 -34.20804 -58.49545 14868 ft 350 kts 322°
2026-05-03 21:04 -34.18784 -58.51199 15509 ft 353 kts 322°
2026-05-03 21:04 -34.16744 -58.52868 16122 ft 357 kts 321°
2026-05-03 21:04 -34.14877 -58.54806 16701 ft 353 kts 305°
2026-05-03 21:05 -34.13652 -58.57335 17261 ft 350 kts 287°
2026-05-03 21:05 -34.13177 -58.60197 17814 ft 350 kts 270°
2026-05-03 21:05 -34.13300 -58.63128 18385 ft 352 kts 264°
2026-05-03 21:05 -34.13499 -58.66078 18872 ft 355 kts 269°
2026-05-03 21:06 -34.13179 -58.69038 19428 ft 359 kts 279°
2026-05-03 21:06 -34.12710 -58.72006 19907 ft 362 kts 278°
2026-05-03 21:06 -34.12251 -58.75000 20426 ft 364 kts 278°
2026-05-03 21:06 -34.11793 -58.78012 20927 ft 367 kts 278°
2026-05-03 21:07 -34.11330 -58.81049 21406 ft 370 kts 278°
2026-05-03 21:07 -34.10866 -58.84105 21908 ft 372 kts 278°
2026-05-03 21:07 -34.10553 -58.86154 22234 ft 374 kts 278°
2026-05-03 21:07 -34.09923 -58.90282 22863 ft 378 kts 277°
2026-05-03 21:08 -34.09606 -58.92360 23182 ft 379 kts 277°
2026-05-03 21:08 -34.08071 -59.02369 24518 ft 386 kts 277°
2026-05-03 21:09 -34.07580 -59.05553 24909 ft 388 kts 277°
2026-05-03 21:09 -34.07087 -59.08755 25295 ft 390 kts 277°
2026-05-03 21:09 -34.06586 -59.11973 25681 ft 392 kts 278°
2026-05-03 21:09 -34.05193 -59.16050 26210 ft 405 kts 300°
2026-05-03 21:10 -34.03448 -59.18742 26576 ft 410 kts 303°
2026-05-03 21:10 -34.02254 -59.20526 26783 ft 412 kts 303°
2026-05-03 21:10 -33.99829 -59.24091 27263 ft 415 kts 304°
2026-05-03 21:10 -33.97984 -59.26770 27604 ft 417 kts 304°
2026-05-03 21:11 -33.96121 -59.29458 27942 ft 420 kts 304°
2026-05-03 21:11 -33.94247 -59.32157 28277 ft 422 kts 304°
2026-05-03 21:11 -33.92991 -59.33962 28496 ft 423 kts 304°
2026-05-03 21:11 -33.90469 -59.37585 28925 ft 426 kts 304°
2026-05-03 21:12 -33.89197 -59.39411 29145 ft 428 kts 304°
2026-05-03 21:12 -33.87287 -59.42151 29460 ft 430 kts 304°
2026-05-03 21:12 -33.85364 -59.44908 29770 ft 432 kts 304°
2026-05-03 21:12 -33.83432 -59.47674 30082 ft 434 kts 303°
2026-05-03 21:13 -33.80839 -59.51385 30422 ft 437 kts 303°
2026-05-03 21:13 -33.78885 -59.54178 30694 ft 438 kts 303°
2026-05-03 21:13 -33.76922 -59.56982 30952 ft 440 kts 303°
2026-05-03 21:13 -33.75612 -59.58854 31128 ft 441 kts 303°
2026-05-03 21:14 -33.73639 -59.61668 31435 ft 441 kts 303°
2026-05-03 21:14 -33.71668 -59.64478 31797 ft 440 kts 303°
2026-05-03 21:14 -33.69700 -59.67278 32153 ft 439 kts 303°
2026-05-03 21:14 -33.67731 -59.70076 32509 ft 438 kts 303°
2026-05-03 21:15 -33.65118 -59.73785 32971 ft 437 kts 303°
2026-05-03 21:15 -33.63812 -59.75639 33216 ft 436 kts 303°
2026-05-03 21:15 -33.61857 -59.78409 33548 ft 435 kts 303°
2026-05-03 21:15 -33.59259 -59.82089 33985 ft 435 kts 303°
2026-05-03 21:16 -33.56053 -59.86624 34064 ft 421 kts 302°
2026-05-03 21:16 -33.51675 -59.92809 34054 ft 417 kts 302°
2026-05-03 21:17 -33.48550 -59.97217 34057 ft 417 kts 302°
2026-05-03 21:17 -33.44177 -60.03378 34053 ft 417 kts 302°
2026-05-03 21:18 -33.40420 -60.08661 34052 ft 417 kts 302°
2026-05-03 21:18 -33.37289 -60.13059 34052 ft 418 kts 302°
2026-05-03 21:19 -33.33527 -60.18334 34054 ft 418 kts 302°
2026-05-03 21:19 -33.29761 -60.23610 34047 ft 418 kts 302°
2026-05-03 21:20 -33.25367 -60.29754 34047 ft 418 kts 303°
2026-05-03 21:20 -33.21601 -60.35012 34044 ft 418 kts 303°
2026-05-03 21:21 -33.18459 -60.39393 34046 ft 418 kts 303°
2026-05-03 21:21 -33.14063 -60.45513 34038 ft 418 kts 303°
2026-05-03 21:22 -33.10911 -60.49896 34039 ft 418 kts 303°
2026-05-03 21:22 -33.07134 -60.55139 34044 ft 418 kts 303°
2026-05-03 21:23 -33.03351 -60.60384 34043 ft 418 kts 303°
2026-05-03 21:23 -32.99570 -60.65619 34044 ft 418 kts 303°
2026-05-03 21:24 -32.95787 -60.70850 34047 ft 418 kts 303°
2026-05-03 21:24 -32.92001 -60.76078 34047 ft 418 kts 303°
2026-05-03 21:25 -32.88798 -60.81642 34048 ft 403 kts 293°
2026-05-03 21:25 -32.85960 -60.87359 34044 ft 402 kts 293°
2026-05-03 21:26 -32.83130 -60.93081 34043 ft 402 kts 293°
2026-05-03 21:26 -32.80300 -60.98798 34038 ft 402 kts 293°
2026-05-03 21:27 -32.77469 -61.04509 34037 ft 402 kts 293°
2026-05-03 21:27 -32.74161 -61.11171 34033 ft 402 kts 293°
2026-05-03 21:28 -32.71799 -61.15920 34030 ft 402 kts 293°
2026-05-03 21:28 -32.68959 -61.21622 34026 ft 402 kts 294°
2026-05-03 21:29 -32.66118 -61.27319 34029 ft 402 kts 293°
2026-05-03 21:29 -32.63275 -61.33010 34027 ft 402 kts 294°
2026-05-03 21:30 -32.60430 -61.38696 34029 ft 401 kts 294°
2026-05-03 21:30 -32.57584 -61.44376 34022 ft 401 kts 294°
2026-05-03 21:31 -32.54737 -61.50048 34019 ft 401 kts 294°
2026-05-03 21:31 -32.51886 -61.55721 34020 ft 401 kts 294°
2026-05-03 21:32 -32.49512 -61.60437 34025 ft 401 kts 294°
2026-05-03 21:32 -32.46187 -61.67034 34022 ft 401 kts 294°
2026-05-03 21:33 -32.43333 -61.72685 34020 ft 401 kts 294°
2026-05-03 21:33 -32.40477 -61.78334 34022 ft 400 kts 294°
2026-05-03 21:34 -32.37623 -61.83970 34018 ft 400 kts 294°
2026-05-03 21:34 -32.34770 -61.89598 34019 ft 400 kts 294°
2026-05-03 21:35 -32.31912 -61.95225 34020 ft 400 kts 294°
2026-05-03 21:35 -32.28580 -62.01780 34014 ft 399 kts 294°
2026-05-03 21:36 -32.26197 -62.06460 34016 ft 399 kts 294°
2026-05-03 21:36 -32.23341 -62.12064 34014 ft 399 kts 294°
2026-05-03 21:37 -32.20482 -62.17664 34013 ft 399 kts 294°
2026-05-03 21:37 -32.17145 -62.24188 34017 ft 399 kts 294°
2026-05-03 21:38 -32.14767 -62.28830 34016 ft 394 kts 294°
2026-05-03 21:38 -32.11973 -62.34281 33294 ft 388 kts 294°
2026-05-03 21:39 -32.10565 -62.37022 32400 ft 393 kts 295°
2026-05-03 21:39 -32.09156 -62.39764 31570 ft 391 kts 295°
2026-05-03 21:39 -32.07750 -62.42498 30779 ft 388 kts 295°
2026-05-03 21:39 -32.05898 -62.46098 29715 ft 385 kts 295°
2026-05-03 21:40 -32.04975 -62.47890 29138 ft 383 kts 295°
2026-05-03 21:40 -32.03601 -62.50558 28302 ft 380 kts 295°
2026-05-03 21:40 -32.02236 -62.53204 27506 ft 377 kts 295°
2026-05-03 21:40 -32.00890 -62.55814 26923 ft 369 kts 295°
2026-05-03 21:41 -31.99580 -62.58352 26513 ft 357 kts 295°
2026-05-03 21:41 -31.98310 -62.60809 26122 ft 346 kts 295°
2026-05-03 21:41 -31.97078 -62.63192 25751 ft 336 kts 295°
2026-05-03 21:41 -31.95882 -62.65504 25383 ft 326 kts 295°
2026-05-03 21:42 -31.94722 -62.67745 25035 ft 317 kts 295°
2026-05-03 21:42 -31.93595 -62.69921 24695 ft 307 kts 295°
2026-05-03 21:42 -31.92499 -62.72037 24363 ft 301 kts 295°
2026-05-03 21:42 -31.91393 -62.74171 24025 ft 311 kts 295°
2026-05-03 21:43 -31.90264 -62.76347 23688 ft 315 kts 295°
2026-05-03 21:43 -31.89120 -62.78551 23302 ft 316 kts 295°
2026-05-03 21:43 -31.87975 -62.80756 22942 ft 316 kts 295°
2026-05-03 21:43 -31.86833 -62.82952 22598 ft 315 kts 296°
2026-05-03 21:44 -31.85695 -62.85141 22261 ft 313 kts 296°
2026-05-03 21:44 -31.84563 -62.87316 21928 ft 312 kts 296°
2026-05-03 21:44 -31.83435 -62.89482 21606 ft 311 kts 296°
2026-05-03 21:44 -31.82311 -62.91641 21281 ft 310 kts 296°
2026-05-03 21:45 -31.81191 -62.93791 20960 ft 308 kts 296°
2026-05-03 21:45 -31.80074 -62.95932 20628 ft 307 kts 296°
2026-05-03 21:45 -31.78964 -62.98060 20323 ft 306 kts 296°
2026-05-03 21:45 -31.77855 -63.00184 20006 ft 305 kts 296°
2026-05-03 21:46 -31.76751 -63.02297 19689 ft 303 kts 297°
2026-05-03 21:46 -31.75652 -63.04400 19370 ft 302 kts 297°
2026-05-03 21:46 -31.74556 -63.06497 19058 ft 301 kts 297°
2026-05-03 21:46 -31.73464 -63.08584 18744 ft 300 kts 297°
2026-05-03 21:47 -31.72377 -63.10660 18435 ft 299 kts 297°
2026-05-03 21:47 -31.71293 -63.12730 18105 ft 298 kts 297°
2026-05-03 21:47 -31.70212 -63.14794 17765 ft 297 kts 297°
2026-05-03 21:47 -31.69125 -63.16851 17434 ft 297 kts 300°
2026-05-03 21:48 -31.67848 -63.18760 17115 ft 301 kts 309°
2026-05-03 21:48 -31.66314 -63.20431 16810 ft 303 kts 317°
2026-05-03 21:48 -31.64566 -63.21812 16452 ft 305 kts 326°
2026-05-03 21:48 -31.62645 -63.22857 16165 ft 305 kts 335°
2026-05-03 21:49 -31.60614 -63.23531 15964 ft 302 kts 345°
2026-05-03 21:49 -31.58540 -63.23830 15552 ft 307 kts 353°
2026-05-03 21:49 -31.56357 -63.23782 14920 ft 321 kts
2026-05-03 21:49 -31.54104 -63.23552 14285 ft 331 kts
2026-05-03 21:50 -31.51809 -63.23300 13639 ft 332 kts
2026-05-03 21:50 -31.49510 -63.23054 12964 ft 332 kts
2026-05-03 21:50 -31.47218 -63.22813 12371 ft 329 kts
2026-05-03 21:50 -31.44987 -63.22636 12143 ft 313 kts 357°
2026-05-03 21:51 -31.42894 -63.22809 12115 ft 296 kts 347°
2026-05-03 21:51 -31.40909 -63.23351 11979 ft 292 kts 338°
2026-05-03 21:51 -31.39053 -63.24248 11758 ft 288 kts 329°
2026-05-03 21:51 -31.37371 -63.25478 11545 ft 284 kts 320°
2026-05-03 21:52 -31.35905 -63.26999 11338 ft 281 kts 310°
2026-05-03 21:52 -31.34677 -63.28759 11136 ft 279 kts 303°
2026-05-03 21:52 -31.33573 -63.30613 10933 ft 278 kts 302°
2026-05-03 21:52 -31.32493 -63.32476 10733 ft 277 kts 302°
2026-05-03 21:53 -31.31555 -63.34424 10521 ft 275 kts 292°
2026-05-03 21:53 -31.30923 -63.36512 10332 ft 273 kts 283°
2026-05-03 21:53 -31.30613 -63.38696 10136 ft 272 kts 274°
2026-05-03 21:53 -31.30637 -63.40893 10019 ft 271 kts 264°
2026-05-03 21:54 -31.30993 -63.43051 10010 ft 272 kts 254°
2026-05-03 21:54 -31.31668 -63.45118 10000 ft 274 kts 245°
2026-05-03 21:54 -31.32648 -63.47026 10005 ft 275 kts 235°
2026-05-03 21:54 -31.33901 -63.48714 10004 ft 276 kts 226°
2026-05-03 21:55 -31.35389 -63.50130 10007 ft 278 kts 216°
2026-05-03 21:55 -31.37079 -63.51239 9992 ft 280 kts 206°
2026-05-03 21:55 -31.38917 -63.52002 10002 ft 282 kts 196°
2026-05-03 21:55 -31.40857 -63.52393 9998 ft 285 kts 187°
2026-05-03 21:56 -31.42844 -63.52407 9844 ft 288 kts 178°
2026-05-03 21:56 -31.44822 -63.52113 9422 ft 285 kts 173°
2026-05-03 21:56 -31.46759 -63.51730 9007 ft 281 kts 172°
2026-05-03 21:56 -31.48673 -63.51344 8592 ft 278 kts 172°
2026-05-03 21:57 -31.50559 -63.50978 8231 ft 272 kts 172°
2026-05-03 21:57 -31.52403 -63.50710 8140 ft 266 kts 185°
2026-05-03 21:57 -31.54137 -63.51381 8052 ft 267 kts 221°
2026-05-03 21:57 -31.55237 -63.53066 7963 ft 261 kts 256°
2026-05-03 21:58 -31.55433 -63.55143 7912 ft 257 kts 279°
2026-05-03 21:58 -31.55000 -63.57173 7855 ft 259 kts 289°
2026-05-03 21:58 -31.54513 -63.59206 7789 ft 260 kts 288°
2026-05-03 21:58 -31.54032 -63.61243 7718 ft 260 kts 288°
2026-05-03 21:59 -31.53546 -63.63282 7662 ft 260 kts 288°
2026-05-03 21:59 -31.53060 -63.65313 7602 ft 259 kts 288°
2026-05-03 21:59 -31.52573 -63.67338 7541 ft 258 kts 289°
2026-05-03 21:59 -31.52086 -63.69363 7465 ft 259 kts 289°
2026-05-03 22:00 -31.51598 -63.71389 7419 ft 259 kts 289°
2026-05-03 22:00 -31.51111 -63.73410 7353 ft 258 kts 289°
2026-05-03 22:00 -31.50624 -63.75429 7287 ft 258 kts 289°
2026-05-03 22:00 -31.50139 -63.77443 7231 ft 257 kts 289°
2026-05-03 22:01 -31.49652 -63.79461 7124 ft 258 kts 289°
2026-05-03 22:01 -31.49166 -63.81476 6930 ft 257 kts 289°
2026-05-03 22:01 -31.48681 -63.83488 6672 ft 257 kts 289°
2026-05-03 22:01 -31.48196 -63.85499 6398 ft 256 kts 289°
2026-05-03 22:02 -31.47753 -63.87506 6123 ft 255 kts 284°
2026-05-03 22:02 -31.47481 -63.89510 6050 ft 244 kts 283°
2026-05-03 22:02 -31.47215 -63.91424 5974 ft 234 kts 284°
2026-05-03 22:02 -31.46944 -63.93319 5816 ft 241 kts 284°
2026-05-03 22:03 -31.46658 -63.95278 5590 ft 246 kts 284°
2026-05-03 22:03 -31.46374 -63.97214 5483 ft 237 kts 284°
2026-05-03 22:03 -31.46098 -63.99070 5350 ft 227 kts 285°
2026-05-03 22:03 -31.45832 -64.00852 5236 ft 217 kts 285°
2026-05-03 22:04 -31.45578 -64.02552 5116 ft 208 kts 285°
2026-05-03 22:04 -31.45335 -64.04179 4973 ft 199 kts 285°
2026-05-03 22:04 -31.45103 -64.05729 4891 ft 186 kts 286°
2026-05-03 22:04 -31.44886 -64.07174 4750 ft 176 kts 287°
2026-05-03 22:05 -31.44675 -64.08575 4566 ft 175 kts 287°
2026-05-03 22:05 -31.44463 -64.09986 4295 ft 178 kts 287°
2026-05-03 22:05 -31.44246 -64.11427 4036 ft 181 kts 287°
2026-05-03 22:05 -31.44025 -64.12891 3806 ft 184 kts 286°
2026-05-03 22:06 -31.43801 -64.14372 3636 ft 186 kts 287°
2026-05-03 22:06 -31.43482 -64.15809 3509 ft 172 kts 307°
2026-05-03 22:06 -31.42720 -64.16682 3441 ft 145 kts 330°
2026-05-03 22:06 -31.41918 -64.17367 3369 ft 142 kts 328°
2026-05-03 22:07 -31.41124 -64.18035 3276 ft 140 kts 330°
2026-05-03 22:07 -31.40305 -64.18651 3125 ft 140 kts 333°
2026-05-03 22:07 -31.39464 -64.19242 2976 ft 144 kts 333°
2026-05-03 22:07 -31.38599 -64.19844 2819 ft 146 kts 334°
2026-05-03 22:08 -31.37726 -64.20450 2653 ft 147 kts 336°
2026-05-03 22:08 -31.36767 -64.20773 2486 ft 144 kts 360°
2026-05-03 22:08 -31.35762 -64.20765 2300 ft 144 kts
2026-05-03 22:08 -31.34769 -64.20775 2043 ft 144 kts
2026-05-03 22:09 -31.33767 -64.20805 1816 ft 145 kts
2026-05-03 22:09 -31.32769 -64.20814 1654 ft 143 kts 358°
2026-05-03 22:09 -31.31824 -64.20827 1618 ft 119 kts 359°
2026-05-03 22:10 -31.31061 -64.20824 1619 ft 29 kts 15°
2026-05-03 22:10 -31.31031 -64.20843 1617 ft 5 kts 188°
2026-05-03 22:10 -31.31089 -64.20836 1619 ft 12 kts 176°
2026-05-03 22:10 -31.31186 -64.20833 1622 ft 14 kts 181°
2026-05-03 22:11 -31.31281 -64.20832 1618 ft 14 kts 179°
2026-05-03 22:11 -31.31363 -64.20830 1619 ft 11 kts 179°
2026-05-03 22:11 -31.31438 -64.20843 1621 ft 10 kts 207°
2026-05-03 22:11 -31.31463 -64.20889 1620 ft 6 kts 261°
2026-05-03 22:12 -31.31464 -64.20899 1620 ft 1 kts 264°
2026-05-03 22:12 -31.31465 -64.20910 1618 ft 1 kts 266°
2026-05-03 22:12 -31.31465 -64.20926 1616 ft 3 kts 269°
2026-05-03 22:12 -31.31466 -64.20961 1616 ft 6 kts 269°
2026-05-03 22:13 -31.31468 -64.21014 1615 ft 7 kts 263°
2026-05-03 22:13 -31.31476 -64.21080 1620 ft 9 kts 262°
2026-05-03 22:13 -31.31483 -64.21143 1619 ft 5 kts 264°
2026-05-03 22:13 -31.31485 -64.21166 1617 ft 2 kts 262°
2026-05-03 22:14 -31.31486 -64.21177 1616 ft 1 kts 261°
2026-05-03 22:14 -31.31486 -64.21179 1616 ft 0 kts 261°